Portada
METAR-TAF:

METAR-TAF

Aeroports :

Machala, Equador

latitud: 03-26-07S, longitud: 079-58-40W, altitud: 52 m

Observació

L'informe es va fer fa 34 minuts, a les 11:00 UTC
Vent 1 kt del Est/Sud-Est
Temperatura 22°C
Humitat 100%
Pressió 1011 hPa
Visibilitat: 6000 m
Escasses núvols a una alçada de 1000 ft
Cel cobert a una alçada de 1600 ft
plugim

METAR: SERO 121100Z 12001KT 6000 -DZ FEW010 OVC016 22/22 Q1011

Hora: 06:34 (11:34 UTC)


TAF: manca

Observacions i pronòstics meteorològics de més de 4000 aeroports (METAR i TAF).

Les estacions disponibles són els punts grocs i vermells al mapa.

Posi el ratolí al punt desitjat per veure el nom de l'estació.

Feu clic per veure les observacions i els pronòstics meteorològics.

Per canviar el mapa: feu clic els botons verds amb una creu de color negre per apropar; al botó verd amb un guió per allunyar la imatge; o en les fletxes verdes per a mapes adjacents.


METAR-TAF: